Plato, MN

12:17 AM CST on February 20, 2017 (GMT -0600)
Glencoe Municipal

Weather History for KGYL - October, 2012

Change the Weather History Date:

Wednesday, October 17, 2012

  Actual Average (KHCD) Record (KHCD)
Temperature  
Mean Temperature 52 °F -  
Max Temperature 60 °F 58 °F 84 °F (1991)
Min Temperature 44 °F 35 °F 17 °F (1976)
Degree Days  
Heating Degree Days 14    
Growing Degree Days 2 (Base 50)    
Moisture  
Dew Point 44 °F    
Average Humidity 76    
Maximum Humidity 89    
Minimum Humidity 52    
Precipitation  
Precipitation 0.00 in - - ()
Sea Level Pressure  
Sea Level Pressure 29.24 in    
Wind  
Wind Speed 8 mph (SW)    
Max Wind Speed 21 mph    
Max Gust Speed 34 mph    
Visibility 10 miles    
Events Rain    
Averages and records for this station are not official NWS values.
T = Trace of Precipitation, MM = Missing Value Source: NWS Daily Summary

Daily Weather History Graph

Daily Weather History Graph

Search for Another Location

Airport or City:

Trip Planner

Search our weather history database for the weather conditions in past years. The results will help you decide how hot, cold, wet, or windy it might be!

Date:

Astronomy

Oct. 17, 2012 Rise Set
Actual Time 7:35 AM CDT 6:27 PM CDT
Civil Twilight 7:05 AM CDT 6:56 PM CDT
Nautical Twilight 6:31 AM CDT 7:30 PM CDT
Astronomical Twilight 5:57 AM CDT 8:04 PM CDT
Moon 10:17 AM CDT (10/17) 7:55 PM CDT (10/17)
Length of Visible Light 11h 51m
Length of Day
10h 52m
Waxing Crescent, 7% of the Moon is Illuminated
Oct 17
Waxing Crescent
Oct 21
First Quarter
Oct 29
Full
Nov 6
Last Quarter
Nov 13
New

Hourly Weather History & Observations

Time (CDT) Temp. Windchill Dew Point Humidity Pressure Visibility Wind Dir Wind Speed Gust Speed Precip Events Conditions
12:15 AM 49.6 °F - 45.3 °F 85% 29.35 in 10.0 mi Calm Calm - N/A   Clear
12:35 AM 48.9 °F - 44.6 °F 85% 29.34 in 10.0 mi Calm Calm - N/A   Clear
12:55 AM 48.7 °F - 44.6 °F 86% 29.33 in 10.0 mi Calm Calm - N/A   Clear
1:15 AM 48.6 °F - 44.6 °F 86% 29.33 in 10.0 mi Calm Calm - N/A   Clear
1:35 AM 47.7 °F - 44.2 °F 88% 29.32 in 10.0 mi Calm Calm - N/A   Clear
1:55 AM 47.5 °F - 44.1 °F 88% 29.31 in 10.0 mi East 4.6 mph - N/A   Clear
2:15 AM 47.3 °F - 44.2 °F 89% 29.31 in 10.0 mi East 3.5 mph - N/A   Clear
2:35 AM 47.5 °F - 44.4 °F 89% 29.31 in 10.0 mi ESE 4.6 mph - N/A   Clear
2:55 AM 47.5 °F - 43.9 °F 87% 29.31 in 10.0 mi Calm Calm - N/A   Clear
3:15 AM 47.5 °F - 43.7 °F 87% 29.30 in 10.0 mi ESE 3.5 mph - N/A   Clear
3:35 AM 48.6 °F - 44.8 °F 87% 29.30 in 10.0 mi SSE 3.5 mph - N/A   Clear
3:55 AM 47.5 °F - 44.4 °F 89% 29.27 in 10.0 mi East 3.5 mph - N/A   Clear
4:15 AM 49.5 °F - 46.0 °F 88% 29.25 in 10.0 mi East 4.6 mph - N/A Rain Light Rain
4:35 AM 50.0 °F - 45.9 °F 86% 29.24 in 10.0 mi East 6.9 mph - N/A   Scattered Clouds
4:56 AM 50.5 °F - 45.7 °F 83% 29.22 in 10.0 mi East 9.2 mph - N/A   Clear
5:15 AM 50.5 °F - 45.7 °F 83% 29.22 in 10.0 mi ESE 8.1 mph - N/A   Clear
5:35 AM 51.1 °F - 45.7 °F 82% 29.20 in 10.0 mi East 10.4 mph - N/A   Scattered Clouds
5:55 AM 52.0 °F - 45.7 °F 79% 29.20 in 10.0 mi East 11.5 mph - N/A   Scattered Clouds
6:15 AM 52.0 °F - 45.5 °F 79% 29.17 in 10.0 mi East 10.4 mph - N/A   Clear
6:35 AM 53.4 °F - 46.0 °F 76% 29.16 in 10.0 mi ESE 11.5 mph - N/A Rain Light Rain
6:55 AM 53.6 °F - 46.6 °F 77% 29.16 in 10.0 mi ESE 11.5 mph - N/A   Clear
7:15 AM 55.0 °F - 46.8 °F 74% 29.14 in 10.0 mi ESE 11.5 mph 16.1 mph N/A   Scattered Clouds
7:35 AM 56.5 °F - 46.8 °F 70% 29.14 in 10.0 mi SE 11.5 mph - N/A   Scattered Clouds
7:55 AM 57.2 °F - 46.8 °F 68% 29.13 in 10.0 mi SE 11.5 mph - N/A   Scattered Clouds
8:16 AM 58.3 °F - 46.8 °F 66% 29.13 in 10.0 mi SSE 11.5 mph 17.3 mph N/A   Clear
8:35 AM 58.5 °F - 46.9 °F 66% 29.12 in 10.0 mi South 10.4 mph 16.1 mph N/A   Clear
8:55 AM 59.9 °F - 47.3 °F 63% 29.12 in 10.0 mi South 12.7 mph 21.9 mph N/A   Clear
9:16 AM 59.9 °F - 46.8 °F 62% 29.12 in 10.0 mi SSW 12.7 mph 18.4 mph N/A   Clear
9:35 AM 59.4 °F - 47.1 °F 64% 29.11 in 10.0 mi South 11.5 mph 18.4 mph N/A   Clear
9:55 AM 59.5 °F - 46.9 °F 63% 29.13 in 7.0 mi SW 10.4 mph 18.4 mph N/A   Clear
10:16 AM 58.1 °F - 48.2 °F 70% 29.14 in 10.0 mi SW 15.0 mph 23.0 mph N/A   Light Drizzle
10:35 AM 57.2 °F - 48.7 °F 73% 29.14 in 10.0 mi WSW 12.7 mph 23.0 mph N/A   Scattered Clouds
10:55 AM 57.0 °F - 50.0 °F 77% 29.16 in 10.0 mi WSW 19.6 mph 28.8 mph N/A   Mostly Cloudy
11:15 AM 55.0 °F - 49.1 °F 80% 29.18 in 10.0 mi WSW 16.1 mph 26.5 mph N/A   Overcast
11:35 AM 54.1 °F - 48.7 °F 82% 29.20 in 5.0 mi West 17.3 mph 29.9 mph N/A   Haze
11:55 AM 54.0 °F - 48.4 °F 81% 29.21 in 10.0 mi West 18.4 mph 26.5 mph N/A   Mostly Cloudy
12:15 PM 53.8 °F - 46.4 °F 76% 29.22 in 10.0 mi West 18.4 mph 32.2 mph N/A   Overcast
12:36 PM 54.9 °F - 45.0 °F 69% 29.23 in 10.0 mi West 20.7 mph 34.5 mph N/A   Mostly Cloudy
12:55 PM 56.1 °F - 45.1 °F 67% 29.22 in 10.0 mi WSW 18.4 mph 25.3 mph N/A   Mostly Cloudy
1:15 PM 55.4 °F - 44.2 °F 66% 29.23 in 10.0 mi WSW 12.7 mph 25.3 mph N/A   Overcast
1:35 PM 57.6 °F - 43.7 °F 60% 29.23 in 10.0 mi WSW 15.0 mph 23.0 mph N/A   Mostly Cloudy
1:55 PM 56.5 °F - 42.6 °F 60% 29.24 in 10.0 mi SW 15.0 mph 24.2 mph N/A   Scattered Clouds
2:15 PM 56.7 °F - 42.1 °F 58% 29.24 in 10.0 mi West 15.0 mph 23.0 mph N/A   Scattered Clouds
2:35 PM 56.7 °F - 41.9 °F 58% 29.23 in 10.0 mi WSW 11.5 mph 21.9 mph N/A   Mostly Cloudy
2:55 PM 57.7 °F - 41.0 °F 54% 29.23 in 10.0 mi WSW 13.8 mph 24.2 mph N/A   Mostly Cloudy
3:15 PM 57.4 °F - 40.1 °F 53% 29.23 in 10.0 mi WSW 16.1 mph 24.2 mph N/A   Mostly Cloudy
3:35 PM 57.0 °F - 39.7 °F 52% 29.24 in 10.0 mi WSW 13.8 mph 23.0 mph N/A   Mostly Cloudy
3:55 PM 56.1 °F - 40.1 °F 55% 29.24 in 10.0 mi WSW 13.8 mph 21.9 mph N/A   Mostly Cloudy
4:15 PM 55.6 °F - 40.5 °F 57% 29.25 in 10.0 mi WSW 10.4 mph 17.3 mph N/A   Overcast
4:35 PM 55.0 °F - 40.8 °F 59% 29.25 in 10.0 mi WSW 10.4 mph 17.3 mph N/A   Overcast
4:56 PM 55.0 °F - 41.2 °F 60% 29.25 in 10.0 mi WSW 8.1 mph 17.3 mph N/A   Mostly Cloudy
5:15 PM 54.5 °F - 42.6 °F 64% 29.26 in 10.0 mi WSW 12.7 mph 18.4 mph N/A   Overcast
5:35 PM 53.1 °F - 43.3 °F 70% 29.27 in 10.0 mi WSW 15.0 mph 20.7 mph N/A   Overcast
6:15 PM 50.4 °F - 43.2 °F 76% 29.28 in 10.0 mi West 15.0 mph 26.5 mph N/A   Overcast
6:35 PM 50.0 °F - 42.3 °F 75% 29.30 in 10.0 mi West 17.3 mph 25.3 mph N/A   Overcast
6:55 PM 48.2 °F - 42.4 °F 80% 29.31 in 7.0 mi West 18.4 mph 26.5 mph N/A Rain Light Rain
7:15 PM 47.3 °F - 42.4 °F 83% 29.31 in 10.0 mi WSW 15.0 mph 24.2 mph N/A   Overcast
7:36 PM 46.4 °F 40.7 °F 42.4 °F 86% 29.31 in 10.0 mi West 12.7 mph 24.2 mph N/A   Overcast
7:55 PM 46.4 °F 41.9 °F 41.9 °F 84% 29.32 in 10.0 mi WSW 9.2 mph 18.4 mph N/A   Overcast
8:15 PM 46.4 °F 42.4 °F 41.5 °F 83% 29.32 in 10.0 mi WSW 8.1 mph 16.1 mph N/A   Mostly Cloudy
8:36 PM 45.9 °F 41.7 °F 41.5 °F 85% 29.32 in 10.0 mi West 8.1 mph 17.3 mph N/A   Mostly Cloudy
8:55 PM 45.9 °F 40.8 °F 41.4 °F 84% 29.31 in 10.0 mi West 10.4 mph 18.4 mph N/A   Overcast
9:16 PM 45.7 °F 40.6 °F 41.2 °F 84% 29.31 in 10.0 mi WSW 10.4 mph 18.4 mph N/A   Overcast
9:35 PM 45.5 °F 39.9 °F 41.0 °F 84% 29.31 in 10.0 mi WSW 11.5 mph 17.3 mph N/A   Overcast
9:55 PM 45.5 °F 39.6 °F 41.2 °F 85% 29.30 in 10.0 mi West 12.7 mph 18.4 mph N/A   Overcast
10:15 PM 44.8 °F 38.7 °F 41.4 °F 88% 29.30 in 10.0 mi West 12.7 mph 18.4 mph N/A   Overcast
10:35 PM 44.6 °F 38.4 °F 41.0 °F 87% 29.29 in 10.0 mi West 12.7 mph 18.4 mph N/A   Mostly Cloudy
10:55 PM 45.0 °F 38.5 °F 41.0 °F 86% 29.28 in 10.0 mi West 13.8 mph 18.4 mph N/A   Overcast
11:15 PM 45.0 °F 39.7 °F 40.6 °F 85% 29.28 in 10.0 mi West 10.4 mph - N/A   Overcast
11:35 PM 45.1 °F 40.3 °F 40.6 °F 84% 29.28 in 10.0 mi West 9.2 mph 18.4 mph N/A   Overcast
11:55 PM 44.8 °F 38.7 °F 40.5 °F 85% 29.28 in 10.0 mi West 12.7 mph - N/A   Overcast